{"data":{"norad_id":63195,"epoch":"2026-05-24T21:51:44.873856Z","epoch_age_seconds":93175,"freshness":"FRESH","line1":"1 63195U 25048N   26144.91093604  .00166476  00000+0  12731-2 0  9997","line2":"2 63195  43.0050 220.9125 0001850  44.9685 315.1333 15.70876001 70505","mean_motion":15.70876001,"eccentricity":0.000185,"inclination_deg":43.005,"raan_deg":220.9125,"arg_perigee_deg":44.9685,"mean_anomaly_deg":315.1333,"bstar":0.0012731,"rev_number":7050,"period_min":91.668597590345,"perigee_km":355.14627804232,"apogee_km":357.63805383372,"semimajor_km":6734.529165938,"source":"CELESTRAK","updated_at":"2026-05-25T13:38:19.921375Z"}}